Patterson, LA

11:50 PM CST on November 11, 2019 (GMT -0600)
Williams Memorial

Weather History for KPTN - September, 2019

Change the Weather History Date:

Thursday, September 5, 2019

  Actual Average Record
Temperature  
Mean Temperature 84 °F -  
Max Temperature 93 °F 85 °F 100 °F (2000)
Min Temperature 75 °F 71 °F 68 °F (2011)
Cooling Degree Days 19    
Growing Degree Days 34 (Base 50)    
Moisture  
Dew Point 75 °F    
Average Humidity 77    
Maximum Humidity 97    
Minimum Humidity 49    
Precipitation  
Precipitation 0.00 in - - ()
Sea Level Pressure  
Sea Level Pressure 30.04 in    
Wind  
Wind Speed 2 mph (NW)    
Max Wind Speed 9 mph    
Max Gust Speed -    
Visibility 10 miles    
Events      
Averages and records for this station are not official NWS values.
T = Trace of Precipitation, MM = Missing Value Source: NWS Daily Summary

Daily Weather History Graph

Daily Weather History Graph

Search for Another Location

Airport or City:

Astronomy

Sep. 05, 2019 Rise Set
Actual Time 6:44 AM CDT 7:23 PM CDT
Civil Twilight 6:20 AM CDT 7:47 PM CDT
Nautical Twilight 5:52 AM CDT 8:15 PM CDT
Astronomical Twilight 5:23 AM CDT 8:44 PM CDT
Moon 1:21 PM CDT (9/5) No Moon Set
Length of Visible Light 13h 26m
Length of Day
12h 38m
Waxing Crescent, 45% of the Moon is Illuminated
Sep 5
Waxing Crescent
Sep 5
First Quarter
Sep 13
Full
Sep 21
Last Quarter
Sep 28
New

Hourly Weather History & Observations

Time (CDT) Temp. Heat Index Dew Point Humidity Pressure Visibility Wind Dir Wind Speed Gust Speed Precip Events Conditions
12:56 AM 78.1 °F - 77.0 °F 96% 30.02 in 10.0 mi Calm Calm - N/A   Clear
1:56 AM 78.1 °F - 77.0 °F 96% 30.02 in 10.0 mi Calm Calm - N/A   Mostly Cloudy
2:56 AM 77.0 °F - 75.9 °F 96% 30.02 in 10.0 mi Calm Calm - N/A   Partly Cloudy
3:56 AM 77.0 °F - 75.9 °F 96% 30.02 in 10.0 mi Calm Calm - N/A   Clear
4:56 AM 75.9 °F - 75.0 °F 97% 30.02 in 10.0 mi Calm Calm - N/A   Clear
5:56 AM 78.1 °F - 75.0 °F 90% 30.04 in 10.0 mi WNW 4.6 mph - N/A   Clear
6:56 AM 77.0 °F - 75.0 °F 94% 30.06 in 10.0 mi WNW 3.5 mph - N/A   Clear
7:56 AM 79.0 °F - 77.0 °F 94% 30.08 in 10.0 mi West 3.5 mph - N/A   Clear
8:56 AM 84.0 °F 93.7 °F 77.0 °F 79% 30.09 in 10.0 mi Calm Calm - N/A   Clear
9:56 AM 88.0 °F 101.3 °F 78.1 °F 72% 30.09 in 10.0 mi Calm Calm - N/A   Clear
10:56 AM 90.0 °F 101.3 °F 75.9 °F 63% 30.09 in 3.0 mi Variable 3.5 mph - N/A   Haze
11:56 AM 91.9 °F 99.5 °F 72.0 °F 52% 30.08 in 10.0 mi NNE 4.6 mph - N/A   Clear
12:56 PM 93.0 °F 100.7 °F 72.0 °F 50% 30.07 in 10.0 mi NW 9.2 mph - N/A   Clear
1:56 PM 93.0 °F 100.1 °F 71.1 °F 49% 30.06 in 10.0 mi NNW 5.8 mph - N/A   Clear
2:56 PM 93.9 °F 102.1 °F 72.0 °F 49% 30.04 in 10.0 mi NW 9.2 mph - N/A   Clear
3:56 PM 91.9 °F 99.5 °F 72.0 °F 52% 30.02 in 10.0 mi WNW 8.1 mph - N/A   Scattered Clouds
4:56 PM 93.0 °F 101.9 °F 73.0 °F 52% 30.00 in 10.0 mi NNW 4.6 mph - N/A   Scattered Clouds
5:56 PM 93.0 °F 104.6 °F 75.0 °F 56% 30.00 in 10.0 mi West 5.8 mph - N/A   Scattered Clouds
6:56 PM 90.0 °F 101.3 °F 75.9 °F 63% 29.99 in 10.0 mi WNW 3.5 mph - N/A   Clear
7:56 PM 82.0 °F 91.6 °F 79.0 °F 90% 30.00 in 10.0 mi SW 3.5 mph - N/A   Clear
8:56 PM 80.1 °F 85.8 °F 77.0 °F 90% 30.01 in 9.0 mi Calm Calm - N/A   Clear
9:56 PM 78.1 °F - 75.9 °F 93% 30.02 in 10.0 mi Calm Calm - N/A   Clear
10:56 PM 78.1 °F - 75.9 °F 93% 30.02 in 10.0 mi Calm Calm - N/A   Clear
11:56 PM 78.1 °F - 75.9 °F 93% 30.01 in 10.0 mi Calm Calm - N/A   Clear